Location: Düngen
(52.0952°N, 10.0219°E)
Time: 05:41:48
(UTC+00:00)

NOSS 3-2 (A) - Visible Passes

Search period start: 06 June 2026 00:00
Search period end: 16 June 2026 00:00
Orbit: 669 x 1534 km, 63.4° (Epoch: 2 January)

Date Brightness Start Highest point End Pass type
(mag) Time Alt. Az. Time Alt. Az. Time Alt. Az.
6 Jun 5.2 00:44:04 10° WNW 00:49:13 33° N 00:55:27 10° NE visible
6 Jun 4.5 20:18:11 10° SSE 20:21:32 18° ESE 20:25:13 10° ENE visible
6 Jun 3.1 22:06:00 10° SW 22:11:08 86° SE 22:17:24 10° NE visible
6 Jun 4.9 23:57:27 10° W 00:02:36 37° NNW 00:08:51 10° NE visible
7 Jun 5.6 01:49:33 10° NW 01:55:05 32° N 02:01:43 10° ENE visible
7 Jun 3.2 21:20:09 10° SSW 21:25:06 58° SE 21:31:03 10° NE visible
7 Jun 4.5 23:10:53 10° W 23:16:04 45° NNW 23:22:23 10° NE visible
8 Jun 5.5 01:03:05 10° WNW 01:08:23 31° N 01:14:45 10° ENE visible
8 Jun 3.7 20:34:38 10° S 20:39:13 36° ESE 20:44:35 10° NE visible
8 Jun 3.9 22:24:26 10° WSW 22:29:38 58° NW 22:36:01 10° NE visible
9 Jun 5.4 00:16:30 10° WNW 00:21:41 32° N 00:27:55 10° NE visible
9 Jun 5.5 02:08:14 10° NW 02:14:11 38° NNE 02:21:25 10° E visible
9 Jun 3.3 21:38:11 10° SW 21:43:21 81° NW 21:49:42 10° NE visible
9 Jun 5.1 23:29:53 10° W 23:35:02 35° NNW 23:41:15 10° NE visible
10 Jun 5.6 01:21:53 10° NW 01:27:32 33° NNE 01:34:20 10° ENE visible
10 Jun 3.1 20:52:12 10° SSW 20:57:14 70° SE 21:03:22 10° NE visible
10 Jun 4.8 22:43:17 10° W 22:48:27 41° NNW 22:54:44 10° NE visible
11 Jun 5.6 00:35:28 10° WNW 00:40:51 31° N 00:47:19 10° ENE visible
11 Jun 4.2 21:56:46 10° WSW 22:01:57 51° NNW 22:08:20 10° NE visible
11 Jun 5.5 23:48:55 10° WNW 23:54:08 31° N 00:00:26 10° ENE visible
12 Jun 5.4 01:40:30 10° NW 01:46:37 40° NNE 01:54:02 10° E visible
12 Jun 3.6 21:10:26 10° WSW 21:15:37 69° NW 21:21:59 10° NE visible
12 Jun 5.3 23:02:19 10° WNW 23:07:28 33° N 23:13:41 10° NE visible
13 Jun 5.5 00:54:12 10° NW 00:59:59 35° NNE 01:06:58 10° E visible
13 Jun 3.2 20:24:18 10° SW 20:29:25 83° SE 20:35:40 10° NE visible
13 Jun 5.0 22:15:42 10° W 22:20:51 37° NNW 22:27:06 10° NE visible
14 Jun 5.6 00:07:49 10° NW 00:13:19 32° N 00:19:55 10° ENE visible
14 Jun 4.9 01:58:56 10° NW 02:05:30 54° NNE 02:13:35 10° ESE visible
14 Jun 4.6 21:29:08 10° W 21:34:19 46° NNW 21:40:39 10° NE visible
14 Jun 5.6 23:21:19 10° WNW 23:26:36 31° N 23:32:57 10° ENE visible
15 Jun 5.2 01:12:45 10° NW 01:19:01 44° NNE 01:26:39 10° E visible
15 Jun 4.0 20:42:42 10° WSW 20:47:54 60° NW 20:54:16 10° NE visible
15 Jun 5.5 22:34:44 10° WNW 22:39:55 32° N 22:46:09 10° NE visible
